Volver al catálogo

FENGYUN 1C DEB

ActivoPO
NORAD 29881·DEBRIS·🇨🇳 China

Lanzado May 10, 1999 desde Taiyuan Satellite Launch Center

Loading…

Próximos Pases (próximas 24 horas)

TLE

ActualizadoSource: Space-Track

Época: Sep 13, 2026, 19:53 UTC

1 29881U 99025GB  26256.82869606  .00001788  00000-0  18280-2 0  9994
2 29881  98.7320 204.7505 0291617  74.1563 342.3228 13.60532590969747

Sigue FENGYUN 1C DEB en tiempo real con AllMySat

Download on the App Store